Time,TemperatureF,DewpointF,PressureIn,WindDirection,WindDirectionDegrees,WindSpeedMPH,WindSpeedGustMPH,Humidity,HourlyPrecipIn,Conditions,Clouds,dailyrainin,SoftwareType,DateUTC
2013-06-13 00:00:00,78.2,75.3,29.99,WSW,238,2.0,5.0,91,0.00,,,0.00,WeatherTracker,2013-06-13 05:00:00,
2013-06-13 00:05:00,78.2,75.3,29.99,SW,232,3.0,5.0,91,0.00,,,0.00,WeatherTracker,2013-06-13 05:05:00,
2013-06-13 00:15:00,78.0,75.2,29.98,SW,234,4.0,5.0,91,0.00,,,0.00,WeatherTracker,2013-06-13 05:15:00,
2013-06-13 00:20:00,77.9,75.1,29.98,SW,217,3.0,5.0,91,0.00,,,0.00,WeatherTracker,2013-06-13 05:20:00,
2013-06-13 00:30:00,77.6,74.8,29.98,SW,227,2.0,5.0,91,0.00,,,0.00,WeatherTracker,2013-06-13 05:30:00,
2013-06-13 00:35:00,77.5,75.0,29.98,SW,226,1.0,5.0,92,0.00,,,0.00,WeatherTracker,2013-06-13 05:35:00,
2013-06-13 00:45:00,77.3,74.8,29.98,WSW,241,1.0,5.0,92,0.00,,,0.00,WeatherTracker,2013-06-13 05:45:00,
2013-06-13 00:55:00,77.1,74.6,29.98,WSW,241,1.0,4.0,92,0.00,,,0.00,WeatherTracker,2013-06-13 05:55:00,
2013-06-13 01:05:00,76.9,74.4,29.98,WSW,241,2.0,4.0,92,0.00,,,0.00,WeatherTracker,2013-06-13 06:05:00,
2013-06-13 01:10:00,76.7,74.5,29.97,WSW,241,1.0,4.0,93,0.00,,,0.00,WeatherTracker,2013-06-13 06:10:00,
2013-06-13 01:20:00,76.6,74.4,29.97,WSW,241,3.0,4.0,93,0.00,,,0.00,WeatherTracker,2013-06-13 06:20:00,
2013-06-13 01:25:00,76.5,74.3,29.97,WSW,241,1.0,4.0,93,0.00,,,0.00,WeatherTracker,2013-06-13 06:25:00,
2013-06-13 01:30:00,76.5,74.3,29.97,WSW,241,2.0,4.0,93,0.00,,,0.00,WeatherTracker,2013-06-13 06:30:00,
2013-06-13 01:40:00,76.4,74.5,29.97,SW,234,4.0,5.0,94,0.00,,,0.00,WeatherTracker,2013-06-13 06:40:00,
2013-06-13 01:45:00,76.3,74.4,29.97,SW,234,2.0,5.0,94,0.00,,,0.00,WeatherTracker,2013-06-13 06:45:00,
2013-06-13 01:50:00,76.3,74.4,29.97,WSW,253,3.0,5.0,94,0.00,,,0.00,WeatherTracker,2013-06-13 06:50:00,
2013-06-13 02:00:00,76.2,74.3,29.98,West,259,2.0,5.0,94,0.00,,,0.00,WeatherTracker,2013-06-13 07:00:00,
2013-06-13 02:05:00,76.2,74.3,29.97,WSW,249,2.0,5.0,94,0.00,,,0.00,WeatherTracker,2013-06-13 07:05:00,
2013-06-13 02:10:00,76.1,74.2,29.97,SW,232,3.0,5.0,94,0.00,,,0.00,WeatherTracker,2013-06-13 07:10:00,
2013-06-13 02:15:00,76.1,74.2,29.97,WSW,251,3.0,5.0,94,0.00,,,0.00,WeatherTracker,2013-06-13 07:15:00,
2013-06-13 02:20:00,76.0,74.1,29.97,WSW,251,3.0,4.0,94,0.00,,,0.00,WeatherTracker,2013-06-13 07:20:00,
2013-06-13 02:30:00,75.9,74.0,29.97,West,270,2.0,5.0,94,0.00,,,0.00,WeatherTracker,2013-06-13 07:30:00,
2013-06-13 02:40:00,75.8,73.9,29.97,West,269,2.0,5.0,94,0.00,,,0.00,WeatherTracker,2013-06-13 07:40:00,
2013-06-13 02:45:00,75.8,73.9,29.97,West,269,2.0,5.0,94,0.00,,,0.00,WeatherTracker,2013-06-13 07:45:00,
2013-06-13 02:50:00,75.7,73.8,29.97,West,270,1.0,4.0,94,0.00,,,0.00,WeatherTracker,2013-06-13 07:50:00,
2013-06-13 03:00:00,75.7,73.8,29.97,West,260,2.0,6.0,94,0.00,,,0.00,WeatherTracker,2013-06-13 08:00:00,
2013-06-13 03:05:00,75.6,73.7,29.97,West,261,1.0,6.0,94,0.00,,,0.00,WeatherTracker,2013-06-13 08:05:00,
2013-06-13 03:10:00,75.5,73.6,29.97,West,271,2.0,4.0,94,0.00,,,0.00,WeatherTracker,2013-06-13 08:10:00,
2013-06-13 03:20:00,75.5,73.6,29.97,West,271,2.0,5.0,94,0.00,,,0.00,WeatherTracker,2013-06-13 08:20:00,
2013-06-13 03:25:00,75.4,73.5,29.97,West,271,1.0,4.0,94,0.00,,,0.00,WeatherTracker,2013-06-13 08:25:00,
2013-06-13 03:30:00,75.4,73.5,29.97,West,271,2.0,4.0,94,0.00,,,0.00,WeatherTracker,2013-06-13 08:30:00,
2013-06-13 03:40:00,75.4,73.5,29.97,West,271,0.0,4.0,94,0.00,,,0.00,WeatherTracker,2013-06-13 08:40:00,
2013-06-13 03:50:00,75.4,73.5,29.96,WNW,288,2.0,4.0,94,0.00,,,0.00,WeatherTracker,2013-06-13 08:50:00,
2013-06-13 04:00:00,75.3,73.4,29.96,WNW,287,0.0,4.0,94,0.00,,,0.00,WeatherTracker,2013-06-13 09:00:00,
2013-06-13 04:05:00,75.3,73.4,29.96,WNW,298,0.0,5.0,94,0.00,,,0.00,WeatherTracker,2013-06-13 09:05:00,
2013-06-13 04:15:00,75.2,73.3,29.96,WNW,298,0.0,3.0,94,0.00,,,0.00,WeatherTracker,2013-06-13 09:15:00,
2013-06-13 04:25:00,75.1,73.2,29.96,WNW,298,0.0,0.0,94,0.00,,,0.00,WeatherTracker,2013-06-13 09:25:00,
2013-06-13 04:30:00,75.1,73.2,29.96,WNW,298,0.0,0.0,94,0.00,,,0.00,WeatherTracker,2013-06-13 09:30:00,
2013-06-13 04:35:00,75.0,73.2,29.96,WNW,298,0.0,0.0,94,0.00,,,0.00,WeatherTracker,2013-06-13 09:35:00,
2013-06-13 04:40:00,74.9,73.1,29.96,WNW,298,0.0,0.0,94,0.00,,,0.00,WeatherTracker,2013-06-13 09:40:00,
2013-06-13 04:50:00,74.8,73.0,29.96,WNW,298,1.0,2.0,94,0.00,,,0.00,WeatherTracker,2013-06-13 09:50:00,
2013-06-13 04:55:00,74.8,73.0,29.97,WNW,298,0.0,3.0,94,0.00,,,0.00,WeatherTracker,2013-06-13 09:55:00,
2013-06-13 05:05:00,74.7,72.9,29.97,WNW,298,0.0,3.0,94,0.00,,,0.00,WeatherTracker,2013-06-13 10:05:00,
2013-06-13 05:10:00,74.7,72.9,29.97,WNW,298,0.0,3.0,94,0.00,,,0.00,WeatherTracker,2013-06-13 10:10:00,
2013-06-13 05:15:00,74.6,72.8,29.97,WNW,298,2.0,3.0,94,0.00,,,0.00,WeatherTracker,2013-06-13 10:15:00,
2013-06-13 05:20:00,74.6,72.8,29.97,WNW,298,0.0,3.0,94,0.00,,,0.00,WeatherTracker,2013-06-13 10:20:00,
2013-06-13 05:25:00,74.6,72.8,29.97,WNW,298,0.0,4.0,94,0.00,,,0.00,WeatherTracker,2013-06-13 10:25:00,
2013-06-13 05:35:00,74.5,72.7,29.97,WNW,298,0.0,2.0,94,0.00,,,0.00,WeatherTracker,2013-06-13 10:35:00,
2013-06-13 05:40:00,74.5,72.7,29.97,WNW,298,0.0,0.0,94,0.00,,,0.00,WeatherTracker,2013-06-13 10:40:00,
2013-06-13 05:50:00,74.5,72.7,29.98,NW,312,2.0,3.0,94,0.00,,,0.00,WeatherTracker,2013-06-13 10:50:00,
2013-06-13 06:00:00,74.5,72.7,29.98,WNW,300,0.0,3.0,94,0.00,,,0.00,WeatherTracker,2013-06-13 11:00:00,
2013-06-13 06:05:00,74.5,72.7,29.98,WNW,299,1.0,3.0,94,0.00,,,0.00,WeatherTracker,2013-06-13 11:05:00,
2013-06-13 06:15:00,74.6,72.8,29.98,WNW,290,1.0,4.0,94,0.00,,,0.00,WeatherTracker,2013-06-13 11:15:00,
2013-06-13 06:20:00,74.6,72.8,29.98,SSW,207,1.0,4.0,94,0.00,,,0.00,WeatherTracker,2013-06-13 11:20:00,
2013-06-13 06:30:00,74.8,73.0,29.99,West,273,2.0,3.0,94,0.00,,,0.00,WeatherTracker,2013-06-13 11:30:00,
2013-06-13 06:40:00,75.1,73.2,29.98,WNW,287,2.0,4.0,94,0.00,,,0.00,WeatherTracker,2013-06-13 11:40:00,
2013-06-13 06:50:00,75.6,73.4,29.98,WNW,298,4.0,5.0,93,0.00,,,0.00,WeatherTracker,2013-06-13 11:50:00,
2013-06-13 07:00:00,76.3,73.8,29.98,WNW,286,3.0,6.0,92,0.00,,,0.00,WeatherTracker,2013-06-13 12:00:00,
2013-06-13 07:05:00,76.7,73.9,29.98,NW,309,4.0,6.0,91,0.00,,,0.00,WeatherTracker,2013-06-13 12:05:00,
2013-06-13 07:10:00,77.1,73.9,29.98,NNW,330,3.0,6.0,90,0.00,,,0.00,WeatherTracker,2013-06-13 12:10:00,
2013-06-13 07:15:00,77.5,74.0,29.98,NW,311,4.0,7.0,89,0.00,,,0.00,WeatherTracker,2013-06-13 12:15:00,
2013-06-13 07:25:00,78.1,74.2,29.99,WNW,284,3.0,6.0,88,0.00,,,0.00,WeatherTracker,2013-06-13 12:25:00,
2013-06-13 07:30:00,78.4,74.2,29.99,NW,305,1.0,6.0,87,0.00,,,0.00,WeatherTracker,2013-06-13 12:30:00,
2013-06-13 07:35:00,78.8,74.6,29.99,WNW,298,2.0,6.0,87,0.00,,,0.00,WeatherTracker,2013-06-13 12:35:00,
2013-06-13 07:45:00,79.5,74.9,29.99,WNW,283,3.0,5.0,86,0.00,,,0.00,WeatherTracker,2013-06-13 12:45:00,
2013-06-13 07:55:00,80.2,75.3,30.00,NW,323,3.0,6.0,85,0.00,,,0.00,WeatherTracker,2013-06-13 12:55:00,
2013-06-13 08:05:00,80.8,75.1,29.99,WNW,297,4.0,7.0,83,0.00,,,0.00,WeatherTracker,2013-06-13 13:05:00,
2013-06-13 08:10:00,81.1,75.1,29.99,NW,309,4.0,8.0,82,0.00,,,0.00,WeatherTracker,2013-06-13 13:10:00,
2013-06-13 08:20:00,81.9,75.8,30.00,NW,306,3.0,8.0,82,0.00,,,0.00,WeatherTracker,2013-06-13 13:20:00,
2013-06-13 08:30:00,82.8,76.4,30.00,NNW,333,3.0,7.0,81,0.00,,,0.00,WeatherTracker,2013-06-13 13:30:00,
2013-06-13 08:35:00,83.3,76.1,29.99,NW,326,3.0,7.0,79,0.00,,,0.00,WeatherTracker,2013-06-13 13:35:00,
2013-06-13 08:40:00,83.7,76.1,29.99,NNW,342,4.0,7.0,78,0.00,,,0.00,WeatherTracker,2013-06-13 13:40:00,
2013-06-13 08:45:00,84.0,76.4,29.99,NNW,328,4.0,7.0,78,0.00,,,0.00,WeatherTracker,2013-06-13 13:45:00,
2013-06-13 08:50:00,84.2,76.2,29.99,NW,317,4.0,7.0,77,0.00,,,0.00,WeatherTracker,2013-06-13 13:50:00,
2013-06-13 09:00:00,84.7,76.7,29.99,WNW,290,5.0,7.0,77,0.00,,,0.00,WeatherTracker,2013-06-13 14:00:00,
2013-06-13 09:05:00,85.1,76.7,30.00,NW,311,5.0,7.0,76,0.00,,,0.00,WeatherTracker,2013-06-13 14:05:00,
2013-06-13 09:10:00,85.5,77.4,29.99,NW,306,4.0,6.0,77,0.00,,,0.00,WeatherTracker,2013-06-13 14:10:00,
2013-06-13 09:20:00,86.2,77.3,29.99,WNW,283,3.0,8.0,75,0.00,,,0.00,WeatherTracker,2013-06-13 14:20:00,
2013-06-13 09:30:00,87.2,77.9,29.99,NW,319,2.0,5.0,74,0.00,,,0.00,WeatherTracker,2013-06-13 14:30:00,
2013-06-13 09:35:00,87.6,77.4,29.99,NW,321,5.0,6.0,72,0.00,,,0.00,WeatherTracker,2013-06-13 14:35:00,
2013-06-13 09:40:00,87.9,77.3,29.98,NW,310,6.0,8.0,71,0.00,,,0.00,WeatherTracker,2013-06-13 14:40:00,
2013-06-13 09:45:00,88.1,76.6,29.99,NW,309,5.0,9.0,69,0.00,,,0.00,WeatherTracker,2013-06-13 14:45:00,
2013-06-13 09:55:00,88.6,77.1,29.99,WNW,294,4.0,9.0,69,0.00,,,0.00,WeatherTracker,2013-06-13 14:55:00,
2013-06-13 10:00:00,89.1,77.1,29.99,West,272,5.0,8.0,68,0.00,,,0.00,WeatherTracker,2013-06-13 15:00:00,
2013-06-13 10:10:00,89.8,76.4,29.98,NW,319,5.0,10.0,65,0.00,,,0.00,WeatherTracker,2013-06-13 15:10:00,
2013-06-13 10:15:00,89.7,77.2,29.98,WNW,286,1.0,10.0,67,0.00,,,0.00,WeatherTracker,2013-06-13 15:15:00,
2013-06-13 10:20:00,89.8,76.4,29.99,WNW,299,5.0,11.0,65,0.00,,,0.00,WeatherTracker,2013-06-13 15:20:00,
2013-06-13 10:25:00,89.9,76.1,29.98,NNW,347,5.0,11.0,64,0.00,,,0.00,WeatherTracker,2013-06-13 15:25:00,
2013-06-13 10:35:00,90.2,76.3,29.98,NNW,335,6.0,9.0,64,0.00,,,0.00,WeatherTracker,2013-06-13 15:35:00,
2013-06-13 10:40:00,90.0,75.7,29.98,NW,325,5.0,12.0,63,0.00,,,0.00,WeatherTracker,2013-06-13 15:40:00,
2013-06-13 10:50:00,90.6,75.8,29.98,WNW,302,4.0,11.0,62,0.00,,,0.00,WeatherTracker,2013-06-13 15:50:00,
2013-06-13 11:00:00,91.1,75.7,29.98,WNW,288,8.0,11.0,61,0.00,,,0.00,WeatherTracker,2013-06-13 16:00:00,
2013-06-13 11:05:00,91.2,76.3,29.98,NW,309,3.0,11.0,62,0.00,,,0.00,WeatherTracker,2013-06-13 16:05:00,
2013-06-13 11:15:00,91.7,75.3,29.97,NNW,338,4.0,12.0,59,0.00,,,0.00,WeatherTracker,2013-06-13 16:15:00,
2013-06-13 11:25:00,91.4,75.5,29.97,NNW,330,5.0,11.0,60,0.00,,,0.00,WeatherTracker,2013-06-13 16:25:00,
2013-06-13 11:35:00,90.7,75.9,29.96,NW,305,5.0,12.0,62,0.00,,,0.00,WeatherTracker,2013-06-13 16:35:00,
2013-06-13 11:40:00,91.2,75.8,29.96,WNW,288,3.0,10.0,61,0.00,,,0.00,WeatherTracker,2013-06-13 16:40:00,
2013-06-13 11:45:00,91.3,74.9,29.96,WNW,302,4.0,10.0,59,0.00,,,0.00,WeatherTracker,2013-06-13 16:45:00,
2013-06-13 11:55:00,90.7,75.9,29.96,WNW,288,3.0,11.0,62,0.00,,,0.00,WeatherTracker,2013-06-13 16:55:00,
2013-06-13 12:00:00,90.7,76.8,29.95,NNW,332,5.0,11.0,64,0.00,,,0.00,WeatherTracker,2013-06-13 17:00:00,
2013-06-13 12:05:00,91.9,77.9,29.95,NW,309,8.0,10.0,64,0.00,,,0.00,WeatherTracker,2013-06-13 17:05:00,
2013-06-13 12:15:00,91.2,75.8,29.95,NNE,19,6.0,12.0,61,0.00,,,0.00,WeatherTracker,2013-06-13 17:15:00,
2013-06-13 12:20:00,91.6,76.2,29.95,WNW,292,6.0,12.0,61,0.00,,,0.00,WeatherTracker,2013-06-13 17:20:00,
2013-06-13 12:30:00,92.1,76.7,29.95,NW,310,5.0,12.0,61,0.00,,,0.00,WeatherTracker,2013-06-13 17:30:00,
2013-06-13 12:35:00,92.2,75.2,29.94,NNW,337,6.0,10.0,58,0.00,,,0.00,WeatherTracker,2013-06-13 17:35:00,
2013-06-13 12:45:00,92.8,76.3,29.94,NNW,327,6.0,9.0,59,0.00,,,0.00,WeatherTracker,2013-06-13 17:45:00,
2013-06-13 12:50:00,92.3,76.4,29.94,NW,315,7.0,10.0,60,0.00,,,0.00,WeatherTracker,2013-06-13 17:50:00,
2013-06-13 12:55:00,92.3,76.9,29.93,WNW,294,4.0,11.0,61,0.00,,,0.00,WeatherTracker,2013-06-13 17:55:00,
2013-06-13 13:00:00,92.5,76.0,29.93,NW,317,6.0,11.0,59,0.00,,,0.00,WeatherTracker,2013-06-13 18:00:00,
2013-06-13 13:05:00,91.9,75.5,29.93,NW,304,4.0,11.0,59,0.00,,,0.00,WeatherTracker,2013-06-13 18:05:00,
2013-06-13 13:15:00,92.3,75.3,29.93,WNW,290,7.0,12.0,58,0.00,,,0.00,WeatherTracker,2013-06-13 18:15:00,
2013-06-13 13:20:00,92.6,76.1,29.93,WNW,286,7.0,12.0,59,0.00,,,0.00,WeatherTracker,2013-06-13 18:20:00,
2013-06-13 13:30:00,93.3,76.3,29.92,SW,235,5.0,13.0,58,0.00,,,0.00,WeatherTracker,2013-06-13 18:30:00,
2013-06-13 13:35:00,93.8,76.2,29.92,NNW,328,5.0,13.0,57,0.00,,,0.00,WeatherTracker,2013-06-13 18:35:00,
2013-06-13 13:40:00,94.0,75.3,29.92,West,266,5.0,14.0,55,0.00,,,0.00,WeatherTracker,2013-06-13 18:40:00,
2013-06-13 13:50:00,93.7,76.1,29.91,NNW,341,3.0,12.0,57,0.00,,,0.00,WeatherTracker,2013-06-13 18:50:00,
2013-06-13 13:55:00,93.7,77.2,29.91,WNW,302,6.0,12.0,59,0.00,,,0.00,WeatherTracker,2013-06-13 18:55:00,
2013-06-13 14:05:00,93.1,75.0,29.91,WNW,298,8.0,11.0,56,0.00,,,0.00,WeatherTracker,2013-06-13 19:05:00,
2013-06-13 14:10:00,92.3,75.3,29.90,NNW,334,5.0,11.0,58,0.00,,,0.00,WeatherTracker,2013-06-13 19:10:00,
2013-06-13 14:20:00,92.3,75.9,29.90,NW,323,4.0,9.0,59,0.00,,,0.00,WeatherTracker,2013-06-13 19:20:00,
2013-06-13 14:25:00,92.6,75.1,29.90,West,281,5.0,11.0,57,0.00,,,0.00,WeatherTracker,2013-06-13 19:25:00,
2013-06-13 14:30:00,92.9,76.4,29.90,NNW,329,5.0,11.0,59,0.00,,,0.00,WeatherTracker,2013-06-13 19:30:00,
2013-06-13 14:35:00,93.4,76.4,29.89,NW,309,7.0,8.0,58,0.00,,,0.00,WeatherTracker,2013-06-13 19:35:00,
2013-06-13 14:45:00,93.3,75.2,29.89,West,279,4.0,9.0,56,0.00,,,0.00,WeatherTracker,2013-06-13 19:45:00,
2013-06-13 14:55:00,93.1,75.6,29.89,WNW,286,4.0,9.0,57,0.00,,,0.00,WeatherTracker,2013-06-13 19:55:00,
2013-06-13 15:00:00,93.3,75.2,29.89,WNW,292,6.0,8.0,56,0.00,,,0.00,WeatherTracker,2013-06-13 20:00:00,
2013-06-13 15:05:00,93.1,76.1,29.89,WSW,242,3.0,8.0,58,0.00,,,0.00,WeatherTracker,2013-06-13 20:05:00,
2013-06-13 15:15:00,93.7,77.2,29.88,WNW,300,2.0,8.0,59,0.00,,,0.00,WeatherTracker,2013-06-13 20:15:00,
2013-06-13 15:20:00,93.8,75.1,29.88,WNW,289,5.0,9.0,55,0.00,,,0.00,WeatherTracker,2013-06-13 20:20:00,
2013-06-13 15:30:00,93.7,76.1,29.88,NNW,328,5.0,10.0,57,0.00,,,0.00,WeatherTracker,2013-06-13 20:30:00,
2013-06-13 15:35:00,94.0,74.8,29.87,West,270,9.0,12.0,54,0.00,,,0.00,WeatherTracker,2013-06-13 20:35:00,
2013-06-13 15:40:00,94.2,75.0,29.87,WNW,297,8.0,12.0,54,0.00,,,0.00,WeatherTracker,2013-06-13 20:40:00,
2013-06-13 15:45:00,94.3,75.6,29.87,WNW,290,5.0,11.0,55,0.00,,,0.00,WeatherTracker,2013-06-13 20:45:00,
2013-06-13 15:55:00,94.6,75.3,29.86,WNW,301,4.0,11.0,54,0.00,,,0.00,WeatherTracker,2013-06-13 20:55:00,
2013-06-13 16:00:00,94.7,74.9,29.86,NW,314,6.0,11.0,53,0.00,,,0.00,WeatherTracker,2013-06-13 21:00:00,
2013-06-13 16:05:00,94.7,74.9,29.86,NW,311,5.0,10.0,53,0.00,,,0.00,WeatherTracker,2013-06-13 21:05:00,
2013-06-13 16:10:00,94.6,74.8,29.86,WNW,282,6.0,12.0,53,0.00,,,0.00,WeatherTracker,2013-06-13 21:10:00,
2013-06-13 16:20:00,94.6,74.8,29.86,WNW,301,8.0,10.0,53,0.00,,,0.00,WeatherTracker,2013-06-13 21:20:00,
2013-06-13 16:25:00,94.4,75.1,29.86,West,277,4.0,11.0,54,0.00,,,0.00,WeatherTracker,2013-06-13 21:25:00,
2013-06-13 16:35:00,94.1,73.2,29.85,WNW,285,11.0,12.0,51,0.00,,,0.00,WeatherTracker,2013-06-13 21:35:00,
2013-06-13 16:45:00,93.3,73.0,29.85,West,265,5.0,13.0,52,0.00,,,0.00,WeatherTracker,2013-06-13 21:45:00,
2013-06-13 16:50:00,92.9,73.8,29.85,West,275,4.0,13.0,54,0.00,,,0.00,WeatherTracker,2013-06-13 21:50:00,
2013-06-13 16:55:00,93.1,73.9,29.84,WNW,293,2.0,10.0,54,0.00,,,0.00,WeatherTracker,2013-06-13 21:55:00,
2013-06-13 17:05:00,93.6,74.4,29.84,NW,315,4.0,10.0,54,0.00,,,0.00,WeatherTracker,2013-06-13 22:05:00,
2013-06-13 17:10:00,93.7,74.5,29.84,West,278,5.0,10.0,54,0.00,,,0.00,WeatherTracker,2013-06-13 22:10:00,
2013-06-13 17:15:00,93.6,74.4,29.84,WNW,287,4.0,10.0,54,0.00,,,0.00,WeatherTracker,2013-06-13 22:15:00,
2013-06-13 17:25:00,93.3,74.7,29.84,West,269,3.0,8.0,55,0.00,,,0.00,WeatherTracker,2013-06-13 22:25:00,
2013-06-13 17:30:00,93.3,74.7,29.84,West,278,4.0,7.0,55,0.00,,,0.00,WeatherTracker,2013-06-13 22:30:00,
2013-06-13 17:35:00,93.4,74.8,29.83,West,273,7.0,9.0,55,0.00,,,0.00,WeatherTracker,2013-06-13 22:35:00,
2013-06-13 17:40:00,93.3,74.1,29.83,NW,315,6.0,9.0,54,0.00,,,0.00,WeatherTracker,2013-06-13 22:40:00,
2013-06-13 17:45:00,93.2,74.0,29.83,West,272,3.0,9.0,54,0.00,,,0.00,WeatherTracker,2013-06-13 22:45:00,
2013-06-13 17:50:00,93.2,74.6,29.83,West,260,4.0,9.0,55,0.00,,,0.00,WeatherTracker,2013-06-13 22:50:00,
2013-06-13 17:55:00,93.2,74.0,29.82,NW,319,3.0,8.0,54,0.00,,,0.00,WeatherTracker,2013-06-13 22:55:00,
2013-06-13 18:05:00,92.9,74.8,29.83,WNW,298,3.0,9.0,56,0.00,,,0.00,WeatherTracker,2013-06-13 23:05:00,
2013-06-13 18:10:00,92.8,74.2,29.83,NNW,337,6.0,8.0,55,0.00,,,0.00,WeatherTracker,2013-06-13 23:10:00,
2013-06-13 18:15:00,92.7,74.7,29.83,West,274,4.0,8.0,56,0.00,,,0.00,WeatherTracker,2013-06-13 23:15:00,
2013-06-13 18:25:00,92.4,73.3,29.83,WNW,301,8.0,9.0,54,0.00,,,0.00,WeatherTracker,2013-06-13 23:25:00,
2013-06-13 18:30:00,92.1,73.0,29.83,NW,304,5.0,9.0,54,0.00,,,0.00,WeatherTracker,2013-06-13 23:30:00,
2013-06-13 18:40:00,91.7,73.7,29.83,WNW,282,2.0,8.0,56,0.00,,,0.00,WeatherTracker,2013-06-13 23:40:00,
2013-06-13 18:45:00,91.6,74.2,29.83,NW,321,5.0,8.0,57,0.00,,,0.00,WeatherTracker,2013-06-13 23:45:00,
2013-06-13 18:55:00,91.3,74.4,29.83,NW,304,0.0,6.0,58,0.00,,,0.00,WeatherTracker,2013-06-13 23:55:00,
2013-06-13 19:00:00,91.2,75.3,29.83,WSW,250,2.0,5.0,60,0.00,,,0.00,WeatherTracker,2013-06-14 00:00:00,
2013-06-13 19:05:00,90.9,74.0,29.83,WNW,300,3.0,5.0,58,0.00,,,0.00,WeatherTracker,2013-06-14 00:05:00,
2013-06-13 19:10:00,90.6,74.8,29.82,NW,312,0.0,5.0,60,0.00,,,0.00,WeatherTracker,2013-06-14 00:10:00,
2013-06-13 19:15:00,90.2,74.4,29.83,NW,306,3.0,4.0,60,0.00,,,0.00,WeatherTracker,2013-06-14 00:15:00,
2013-06-13 19:20:00,89.8,74.5,29.82,WSW,258,1.0,4.0,61,0.00,,,0.00,WeatherTracker,2013-06-14 00:20:00,
2013-06-13 19:25:00,89.3,74.0,29.83,NW,323,2.0,4.0,61,0.00,,,0.00,WeatherTracker,2013-06-14 00:25:00,
2013-06-13 19:30:00,88.8,74.5,29.83,NW,324,3.0,4.0,63,0.00,,,0.00,WeatherTracker,2013-06-14 00:30:00,
2013-06-13 19:40:00,88.1,74.4,29.83,NW,324,0.0,4.0,64,0.00,,,0.00,WeatherTracker,2013-06-14 00:40:00,
2013-06-13 19:45:00,87.9,75.1,29.82,NW,324,0.0,0.0,66,0.00,,,0.00,WeatherTracker,2013-06-14 00:45:00,
2013-06-13 19:55:00,87.4,75.5,29.83,NW,324,0.0,0.0,68,0.00,,,0.00,WeatherTracker,2013-06-14 00:55:00,
2013-06-13 20:00:00,86.9,75.5,29.82,NW,315,0.0,0.0,69,0.00,,,0.00,WeatherTracker,2013-06-14 01:00:00,
2013-06-13 20:10:00,85.7,74.8,29.82,SW,228,0.0,2.0,70,0.00,,,0.00,WeatherTracker,2013-06-14 01:10:00,
2013-06-13 20:20:00,84.9,74.0,29.83,SW,229,0.0,0.0,70,0.00,,,0.00,WeatherTracker,2013-06-14 01:20:00,
2013-06-13 20:25:00,84.6,74.1,29.83,SW,228,0.0,0.0,71,0.00,,,0.00,WeatherTracker,2013-06-14 01:25:00,
2013-06-13 20:30:00,84.4,74.4,29.84,SW,228,0.0,0.0,72,0.00,,,0.00,WeatherTracker,2013-06-14 01:30:00,
2013-06-13 20:35:00,84.1,74.9,29.84,SW,228,0.0,0.0,74,0.00,,,0.00,WeatherTracker,2013-06-14 01:35:00,
2013-06-13 20:45:00,83.8,75.0,29.83,SW,228,0.0,0.0,75,0.00,,,0.00,WeatherTracker,2013-06-14 01:45:00,
2013-06-13 20:50:00,83.5,74.3,29.84,SW,228,0.0,0.0,74,0.00,,,0.00,WeatherTracker,2013-06-14 01:50:00,
2013-06-13 20:55:00,83.2,74.4,29.83,SW,228,0.0,0.0,75,0.00,,,0.00,WeatherTracker,2013-06-14 01:55:00,
2013-06-13 21:00:00,83.0,74.6,29.84,SW,228,0.0,0.0,76,0.00,,,0.00,WeatherTracker,2013-06-14 02:00:00,
2013-06-13 21:05:00,82.7,73.9,29.84,SW,228,0.0,0.0,75,0.00,,,0.00,WeatherTracker,2013-06-14 02:05:00,
2013-06-13 21:10:00,82.3,74.0,29.84,SW,228,0.0,0.0,76,0.00,,,0.00,WeatherTracker,2013-06-14 02:10:00,
2013-06-13 21:20:00,81.6,73.7,29.84,SW,228,0.0,0.0,77,0.00,,,0.00,WeatherTracker,2013-06-14 02:20:00,
2013-06-13 21:25:00,81.3,73.8,29.84,SW,228,0.0,0.0,78,0.00,,,0.00,WeatherTracker,2013-06-14 02:25:00,
2013-06-13 21:30:00,81.0,74.2,29.84,SW,229,0.0,0.0,80,0.00,,,0.00,WeatherTracker,2013-06-14 02:30:00,
2013-06-13 21:35:00,80.7,73.9,29.85,SW,228,0.0,0.0,80,0.00,,,0.00,WeatherTracker,2013-06-14 02:35:00,
2013-06-13 21:45:00,80.1,73.7,29.85,SW,228,0.0,0.0,81,0.00,,,0.00,WeatherTracker,2013-06-14 02:45:00,
2013-06-13 21:50:00,79.9,73.5,29.85,SW,228,0.0,0.0,81,0.00,,,0.00,WeatherTracker,2013-06-14 02:50:00,
2013-06-13 21:55:00,79.6,74.0,29.84,SW,219,3.0,4.0,83,0.00,,,0.00,WeatherTracker,2013-06-14 02:55:00,
2013-06-13 22:00:00,79.5,73.5,29.84,SSW,194,2.0,5.0,82,0.00,,,0.00,WeatherTracker,2013-06-14 03:00:00,
2013-06-13 22:05:00,79.4,73.4,29.84,South,174,2.0,5.0,82,0.00,,,0.00,WeatherTracker,2013-06-14 03:05:00,
2013-06-13 22:15:00,79.4,73.4,29.84,SSW,196,3.0,7.0,82,0.00,,,0.00,WeatherTracker,2013-06-14 03:15:00,
2013-06-13 22:20:00,79.4,73.4,29.85,SSW,197,4.0,7.0,82,0.00,,,0.00,WeatherTracker,2013-06-14 03:20:00,
2013-06-13 22:25:00,79.5,73.9,29.85,South,182,2.0,6.0,83,0.00,,,0.00,WeatherTracker,2013-06-14 03:25:00,
2013-06-13 22:30:00,79.5,73.9,29.86,South,182,2.0,6.0,83,0.00,,,0.00,WeatherTracker,2013-06-14 03:30:00,
2013-06-13 22:40:00,79.6,74.0,29.87,South,182,0.0,3.0,83,0.00,,,0.00,WeatherTracker,2013-06-14 03:40:00,
2013-06-13 22:45:00,79.6,74.3,29.87,South,182,0.0,3.0,84,0.00,,,0.00,WeatherTracker,2013-06-14 03:45:00,
2013-06-13 22:50:00,79.7,74.4,29.86,SSW,209,2.0,6.0,84,0.00,,,0.00,WeatherTracker,2013-06-14 03:50:00,
2013-06-13 23:00:00,79.7,74.4,29.85,South,176,5.0,5.0,84,0.00,,,0.00,WeatherTracker,2013-06-14 04:00:00,
2013-06-13 23:05:00,79.7,74.4,29.84,SSW,192,3.0,7.0,84,0.00,,,0.00,WeatherTracker,2013-06-14 04:05:00,
2013-06-13 23:10:00,79.6,74.3,29.84,SSW,204,3.0,7.0,84,0.00,,,0.00,WeatherTracker,2013-06-14 04:10:00,
2013-06-13 23:20:00,79.6,74.7,29.85,SW,214,3.0,6.0,85,0.00,,,0.00,WeatherTracker,2013-06-14 04:20:00,
2013-06-13 23:25:00,79.6,74.7,29.86,SW,218,0.0,6.0,85,0.00,,,0.00,WeatherTracker,2013-06-14 04:25:00,
2013-06-13 23:30:00,79.6,74.7,29.85,SSW,199,2.0,5.0,85,0.00,,,0.00,WeatherTracker,2013-06-14 04:30:00,
2013-06-13 23:35:00,79.6,74.7,29.85,SSW,200,0.0,5.0,85,0.00,,,0.00,WeatherTracker,2013-06-14 04:35:00,
2013-06-13 23:40:00,79.6,75.0,29.84,SW,225,2.0,5.0,86,0.00,,,0.00,WeatherTracker,2013-06-14 04:40:00,
2013-06-13 23:50:00,79.5,74.9,29.85,WSW,253,2.0,4.0,86,0.00,,,0.00,WeatherTracker,2013-06-14 04:50:00,
2013-06-13 23:55:00,79.5,74.9,29.85,WSW,253,0.0,4.0,86,0.00,,,0.00,WeatherTracker,2013-06-14 04:55:00,